Salina, KS

3:36 PM CDT on September 20, 2017 (GMT -0500)
Salina Municipal

Weather History for KSLN - October, 2011

Change the Weather History Date:

Thursday, October 13, 2011

  Actual Average Record
Temperature  
Mean Temperature 62 °F 59 °F  
Max Temperature 76 °F 70 °F 91 °F (1897)
Min Temperature 47 °F 47 °F 29 °F (1907)
Degree Days  
Heating Degree Days 3 8  
Month to date heating degree days 21 80  
Since 1 July heating degree days 80 132  
Cooling Degree Days 0 1  
Month to date cooling degree days 45 24  
Year to date cooling degree days 2003 1636  
Growing Degree Days 12 (Base 50)    
Moisture  
Dew Point 38 °F    
Average Humidity 47    
Maximum Humidity 74    
Minimum Humidity 19    
Precipitation  
Precipitation 0.00 in 0.08 in 1.41 in (2008)
Month to date precipitation 0.72 1.07  
Year to date precipitation 16.86 28.11  
Sea Level Pressure  
Sea Level Pressure 29.90 in    
Wind  
Wind Speed 8 mph (WNW)    
Max Wind Speed 20 mph    
Max Gust Speed 25 mph    
Visibility 10 miles    
Events      
T = Trace of Precipitation, MM = Missing Value Source: NWS Daily Summary

Daily Weather History Graph

Daily Weather History Graph

Search for Another Location

Airport or City:

Trip Planner

Search our weather history database for the weather conditions in past years. The results will help you decide how hot, cold, wet, or windy it might be!

Date:

Astronomy

Oct. 13, 2011 Rise Set
Actual Time 7:37 AM CDT 6:55 PM CDT
Civil Twilight 7:10 AM CDT 7:22 PM CDT
Nautical Twilight 6:40 AM CDT 7:52 PM CDT
Astronomical Twilight 6:09 AM CDT 8:23 PM CDT
Moon 7:33 PM CDT (10/13) 9:09 AM CDT (10/13)
Length of Visible Light 12h 11m
Length of Day
11h 17m
Full, 98% of the Moon is Illuminated
Oct 13
Full
Oct 19
Last Quarter
Oct 26
New
Nov 2
First Quarter
Nov 10
Full

Hourly Weather History & Observations

Time (CDT) Temp. Dew Point Humidity Pressure Visibility Wind Dir Wind Speed Gust Speed Precip Events Conditions
12:53 AM 53.1 °F 42.1 °F 66% 29.90 in 10.0 mi NW 10.4 mph - N/A   Clear
1:53 AM 51.1 °F 42.1 °F 71% 29.90 in 10.0 mi WNW 6.9 mph - N/A   Clear
2:53 AM 50.0 °F 41.0 °F 71% 29.90 in 10.0 mi NW 4.6 mph - N/A   Clear
3:53 AM 50.0 °F 41.0 °F 71% 29.90 in 10.0 mi NW 6.9 mph - N/A   Clear
4:53 AM 50.0 °F 39.9 °F 68% 29.92 in 10.0 mi WNW 11.5 mph - N/A   Clear
5:53 AM 50.0 °F 39.0 °F 66% 29.93 in 10.0 mi WNW 10.4 mph - N/A   Clear
6:53 AM 48.0 °F 39.0 °F 71% 29.94 in 10.0 mi NW 5.8 mph - N/A   Clear
7:53 AM 48.0 °F 37.9 °F 68% 29.95 in 10.0 mi NW 6.9 mph - N/A   Clear
8:53 AM 53.6 °F 39.2 °F 58% 29.97 in 10.0 mi NW 10.4 mph - N/A   Clear
9:53 AM 57.9 °F 39.0 °F 49% 29.97 in 10.0 mi NW 13.8 mph - N/A   Clear
10:53 AM 64.0 °F 39.0 °F 40% 29.98 in 10.0 mi WNW 13.8 mph - N/A   Clear
11:53 AM 69.1 °F 37.9 °F 32% 29.96 in 10.0 mi NW 12.7 mph - N/A   Clear
12:53 PM 72.0 °F 36.0 °F 27% 29.95 in 10.0 mi WNW 12.7 mph - N/A   Clear
1:53 PM 73.9 °F 35.1 °F 24% 29.91 in 10.0 mi WNW 11.5 mph 20.7 mph N/A   Clear
2:53 PM 75.0 °F 33.1 °F 22% 29.87 in 10.0 mi NW 16.1 mph 20.7 mph N/A   Clear
3:53 PM 75.9 °F 32.0 °F 20% 29.85 in 10.0 mi NW 11.5 mph - N/A   Clear
4:53 PM 75.0 °F 30.0 °F 19% 29.84 in 10.0 mi NW 8.1 mph - N/A   Clear
5:53 PM 73.9 °F 32.0 °F 21% 29.83 in 10.0 mi NW 8.1 mph - N/A   Clear
6:53 PM 70.0 °F 33.1 °F 26% 29.84 in 8.0 mi West 3.5 mph - N/A   Clear
7:53 PM 61.0 °F 37.9 °F 42% 29.86 in 10.0 mi SW 5.8 mph - N/A   Clear
8:53 PM 57.0 °F 39.9 °F 53% 29.86 in 10.0 mi SSE 4.6 mph - N/A   Clear
9:53 PM 50.0 °F 42.1 °F 74% 29.86 in 10.0 mi SSW 6.9 mph - N/A   Clear
10:53 PM 54.0 °F 39.9 °F 59% 29.86 in 10.0 mi Calm Calm - N/A   Clear
11:53 PM 53.1 °F 41.0 °F 64% 29.87 in 10.0 mi Calm Calm - N/A   Clear